www.pogodaiklimat.ru

Погода и климат >> Архив погоды >> Бельгия >> Сент-Губерт


ПОГОДА в Сент-Губерте

  • Прогноз погоды в Сент-Губерте
  • Монитор погоды в Сент-Губерте

АРХИВ ПОГОДЫ в Сент-Губерте

Время (UTC), дата Ветер
(напр.,м/с)
 
Видим.   Явления Облачность Т
(С)
Тd
(С)
f
(%)
Тe
(С)
Тes
(С)
Комфортность P
(гПа)
Po
(гПа)
Тmin
(С)
Tmax
(С)
R
(мм)
R24
(мм)
S
(см)
01 20.06 ЮЗ 3
{5}
14 км 10/10 60 м
[]
+13.4 +12.6 95 +12 +12 1011.4 947.2
02 20.06 ЮЗ 2
{5}
12 км 10/10 150 м
[]
+12.9 +12.0 94 +12 +12 1011.7 947.3
03 20.06 ЮЗ 1
{5}
н/о 10/10 60 м
[]
+12.5 +11.8 95 +12 +12 1012.0 947.5
04 20.06 ЮЗ 2
{4}
3800 м дымка 10/10 60 м
[]
+12.5 +11.8 95 +11 +11 1012.4 947.8
05 20.06 З 2
{4}
4900 м дымка 10/10 60 м
[]
+12.5 +11.7 95 +11 +11 1012.6 948.1
06 20.06 ЮЗ 2
{5}
5000 м дымка 10/10 60 м
[]
+12.7 +11.8 94 +12 +12 1012.8 948.3 +12.3
07 20.06 Ю 2
{4}
16 км 10/10 150 м
[]
+13.5 +11.9 90 +13 +13 1012.6 948.3
08 20.06 Ю 3
{6}
27 км 9/9 270 м
[]
+14.3 +12.1 87 +13 +14 1012.7 948.5
09 20.06 Ю 3
{6}
13 км {дождь, дымка} 10/10 150 м
[]
+14.7 +13.3 91 +14 +14 1012.6 948.6
10 20.06 ЮЗ 3
{9}
5000 м 10/10 150 м
[]
+14.3 +13.0 92 +13 +13 1012.9 948.8
11 20.06 З 5
{7}
16 км {морось, дымка} 10/10 90 м
[]
+12.9 +12.1 95 +11 +11 1013.8 949.3
12 20.06 З 3
{9}
н/о 10/10 30 м
[]
+13.3 +12.4 94 +12 +12 1014.0 949.6
13 20.06 З 3
{6}
24 км 9/9 240 м
[]
+15.1 +13.0 87 +14 +16 1013.6 949.6
14 20.06 З 5
{9}
21 км {дождь, морось} 10/10 270 м
[]
+14.9 +12.6 86 +13 +13 1014.0 949.9
15 20.06 З 3
{9}
29 км {дождь, морось} 5/5 500 м
[]
+16.4 +12.7 79 +16 +20 1013.9 950.1
16 20.06 З 4
{7}
40 км 6/6 630 м
[]
+16.9 +11.8 72 +16 +18 1013.8 950.1
17 20.06 З 4
{8}
35 км 8/8 720 м
[]
+16.5 +10.9 69 +16 +16 1014.2 950.4
18 20.06 З 3
{9}
40 км {дождь, морось} 10/10 660 м
[]
+15.3 +11.6 79 +15 +15 1015.0 950.9 +17.1
19 20.06 З 2
{5}
40 км 10/10 870 м
[]
+14.7 +11.1 79 +14 +14 1015.6 951.3
20 20.06 З 3
{6}
45 км 10/10 840 м
[]
+13.4 +10.2 81 +12 +12 1016.5 951.8
21 20.06 З 2
{7}
45 км 10/10 930 м
[]
+12.4 +9.4 82 +11 +11 1017.4 952.5
22 20.06 З 2
{4}
45 км 9/9 1110 м
[]
+11.2 +8.9 86 +10 +10 1018.0 952.8
23 20.06 СЗ 3
{5}
45 км ясно +10.3 +7.2 81 +8 +8 1018.3 952.8
00 21.06 СЗ 3
{7}
45 км ясно +9.4 +6.7 83 +7 +7 1018.9 953.2
01 21.06 СЗ 1
{5}
45 км 3/3 1500 м
[]
+8.7 +6.6 87 +8 +8 1019.2 953.3
02 21.06 СЗ 1
{2}
45 км ясно +8.3 +5.9 85 +8 +8 1019.4 953.3
03 21.06 З 1
{5}
45 км ясно +7.8 +5.9 88 +7 +7 1019.7 953.5
04 21.06 З 1
{2}
45 км ясно +7.4 +6.1 91 +6 +7 1019.9 953.7
05 21.06 СЗ 1
{2}
45 км ясно +8.4 +6.1 85 +8 +9 1020.1 954.0
06 21.06 ЮЗ 1
{5}
35 км ясно +10.1 +6.7 79 +10 +13 1020.1 954.4 +7.2
07 21.06 нст 1
{3}
40 км ясно +11.4 +6.1 70 +11 +18 1020.2 954.8
08 21.06 З 3
{6}
40 км ясно +12.7 +5.7 62 +11 +19 1020.1 955.0
09 21.06 З 3
{6}
35 км ясно +13.7 +7.3 65 +13 +23 1020.1 955.2
10 21.06 СЗ 3
{6}
35 км 3/3 1000 м
[]
+14.8 +6.8 59 +14 +23 1020.1 955.4
11 21.06 нст 2
{6}
40 км 3/3 1380 м
[]
+15.2 +6.7 57 +15 +27 опасность
простуды
1020.1 955.6
12 21.06 З 3
{6}
23 км 10/10 1300 м
[]
+15.2 +5.7 53 +15 +15 1020.0 955.5
13 21.06 СЗ 2
{7}
27 км 9/9 1320 м
[]
+16.4 +7.4 55 +17 +18 1019.6 955.4
14 21.06 СЗ 2
{7}
22 км 8/8 1500 м
[]
+16.1 +6.5 53 +16 +19 1019.8 955.5
15 21.06 СЗ 4
{7}
30 км 3/3 1500 м
[]
+16.8 +7.0 52 +16 +21 1019.6 955.4
16 21.06 СЗ 3
{7}
40 км ясно +17.2 +6.9 51 +17 +23 1019.4 955.3
17 21.06 СЗ 4
{6}
30 км ясно +17.0 +6.9 51 +17 +19 1019.5 955.4
18 21.06 СЗ 5
{7}
35 км ясно +16.6 +7.3 54 +16 +17 1019.8 955.6 +17.7
19 21.06 С 3
{7}
30 км ясно +15.4 +7.5 59 +15 +15 1020.3 955.8
20 21.06 С 3
{4}
45 км ясно +13.4 +8.0 70 +12 +12 1021.3 956.3
21 21.06 С 3
{7}
45 км ясно +12.7 +7.8 72 +11 +11 1021.9 956.7
22 21.06 СВ 3
{4}
45 км ясно +10.7 +7.4 80 +9 +9 1022.6 956.9
23 21.06 СВ 3
{5}
45 км ясно +11.0 +7.6 80 +9 +9 1022.5 956.9
00 22.06 СВ 4
{7}
40 км ясно +10.3 +7.2 81 +8 +8 1022.6 956.8
01 22.06 СВ 4
{6}
25 км ясно +9.2 +7.5 89 +6 +6 1022.6 956.6
02 22.06 СВ 4
{6}
23 км ясно +9.1 +7.4 89 +6 +6 1022.2 956.2
03 22.06 СВ 4
{7}
21 км ясно +9.5 +7.2 86 +7 +7 1021.9 956.0
04 22.06 СВ 4
{6}
14 км ясно +9.0 +7.5 90 +6 +6 1021.8 955.8
05 22.06 СВ 5
{6}
12 км ясно +10.3 +8.2 87 +7 +8 1021.5 955.8
06 22.06 СВ 5
{7}
13 км ясно +12.2 +9.0 81 +10 +11 1020.8 955.6 +8.4
07 22.06 СВ 5
{7}
17 км ясно +13.4 +9.0 75 +11 +15 1020.5 955.6
08 22.06 СВ 3
{8}
23 км ясно +15.3 +9.2 67 +15 +22 1020.0 955.6
09 22.06 СВ 4
{8}
35 км ясно +17.2 +9.0 59 +17 +25 1019.5 955.5
10 22.06 нст 2
{8}
40 км ясно +18.5 +7.6 49 +19 +35 опасность
простуды
1019.2 955.4
11 22.06 нст 2
{8}
30 км 4/4 1410 м
[]
+19.5 +7.9 47 +21 +31 комфорт 1018.9 955.4
12 22.06 СВ 2
{8}
35 км 6/6 1230 м
[]
+20.4 +9.9 51 +23 +30 комфорт 1018.5 955.2
13 22.06 нст 2
{7}
40 км 10/10 1500 м
[]
+19.9 +10.0 53 +22 +22 комфорт 1018.3 954.9
14 22.06 С 2
{6}
35 км 10/10 1260 м
[]
+19.9 +10.8 56 +22 +22 комфорт 1018.0 954.6
15 22.06 С 4
{8}
35 км 10/10 1500 м
[]
+20.3 +11.2 56 +22 +22 комфорт 1017.7 954.4
16 22.06 С 4
{8}
30 км ясно +21.1 +10.6 51 +23 +27 комфорт 1017.1 954.0
17 22.06 СВ 3
{8}
40 км 10/0 2000 м
[]
+20.5 +11.4 56 +23 +24 комфорт 1017.1 954.0
18 22.06 С 3
{8}
30 км 10/0 2000 м
[]
+20.1 +11.1 56 +22 +23 комфорт 1017.3 954.1 +21.4
19 22.06 СВ 3
{6}
40 км 6/0 2000 м
[]
+19.5 +10.9 58 +21 +21 комфорт 1017.3 953.9
20 22.06 СВ 3
{5}
40 км ясно +17.8 +11.4 66 +18 +18 1018.0 954.2
21 22.06 СВ 3
{6}
40 км ясно +15.3 +11.9 80 +15 +15 1018.8 954.5
22 22.06 СВ 3
{5}
35 км ясно +15.6 +11.4 76 +15 +15 1018.8 954.5
23 22.06 СВ 3
{4}
35 км ясно +15.1 +11.3 78 +14 +14 1019.0 954.6
00 23.06 СВ 3
{6}
30 км 9/0 2000 м
[]
+13.1 +11.3 89 +12 +12 1019.3 954.4
01 23.06 СВ 4
{5}
28 км 9/0 2000 м
[]
+13.9 +11.5 85 +12 +12 1018.7 954.1
02 23.06 В 5
{7}
27 км ясно +14.5 +11.8 84 +13 +13 1018.4 953.9
03 23.06 В 4
{7}
35 км ясно +14.3 +11.1 81 +13 +13 1018.5 954.0
04 23.06 В 4
{6}
30 км ясно +14.1 +11.3 83 +13 +13 1018.5 954.0
05 23.06 В 3
{7}
40 км ясно +15.3 +11.7 79 +15 +15 1018.3 954.0
06 23.06 В 4
{7}
35 км ясно +17.0 +13.0 77 +17 +18 1018.2 954.3 +12.6
07 23.06 В 5
{7}
35 км ясно +18.7 +13.8 73 +19 +22 1017.8 954.3
08 23.06 В 4
{8}
27 км ясно +19.5 +13.7 69 +21 +27 комфорт 1017.7 954.4
09 23.06 В 6
{9}
30 км ясно +20.7 +13.3 63 +23 +28 комфорт 1016.8 953.8
10 23.06 В 6
{9}
30 км ясно +21.7 +13.4 59 +24 +31 комфорт 1016.8 954.0
11 23.06 В 5
{10}
40 км 9/9 1110 м
[]
+22.1 +13.6 59 +25 +26 комфорт 1016.5 953.8
12 23.06 ЮВ 4
{10}
40 км 5/5 1020 м
[]
+22.7 +14.5 60 +26 +32 жарко 1016.4 953.8
13 23.06 ЮВ 5
{10}
29 км 4/4 1080 м
[]
+23.1 +14.3 58 +27 +32 душно 1016.4 953.9
14 23.06 ЮВ 4
{9}
27 км 3/3 1140 м
[]
+23.3 +14.9 59 +27 +34 душно 1016.2 953.7
15 23.06 ЮВ 4
{10}
35 км 9/9 1500 м
[]
+23.1 +14.9 60 +27 +28 душно 1015.9 953.5
16 23.06 ЮВ 5
{8}
30 км 5/5 1300 м
[]
+23.6 +14.3 56 +26 +28 жарко 1015.9 953.5
17 23.06 В 4
{8}
40 км ясно +22.9 +13.7 56 +26 +29 жарко 1015.7 953.2
18 23.06 ЮВ 4
{10}
45 км ясно +22.8 +14.5 59 +26 +27 жарко 1015.9 953.4 +24.2
19 23.06 ЮВ 3
{7}
45 км ясно +21.6 +14.8 65 +25 +25 комфорт 1016.2 953.4
20 23.06 В 2
{5}
45 км ясно +19.6 +14.9 74 +22 +22 комфорт 1017.1 953.8
21 23.06 В 3
{7}
45 км ясно +19.3 +15.0 76 +21 +21 комфорт 1017.5 954.1
22 23.06 ЮВ 4
{6}
45 км ясно +19.2 +15.0 77 +21 +21 комфорт 1017.6 954.3
00 24.06 ЮВ 4
{7}
45 км ясно +18.8 +14.7 77 +20 +20 1017.9 954.4
01 24.06 ЮВ 4
{7}
45 км ясно +18.7 +14.4 76 +19 +19 1017.9 954.4
02 24.06 ЮВ 4
{7}
45 км ясно +18.1 +14.4 79 +18 +18 1017.9 954.3
03 24.06 ЮВ 4
{7}
40 км ясно +18.3 +14.5 79 +19 +19 1018.0 954.4
04 24.06 ЮВ 4
{7}
40 км ясно +17.9 +14.4 80 +18 +18 1017.8 954.2
05 24.06 ЮВ 4
{7}
35 км ясно +18.3 +14.4 78 +19 +19 1017.7 954.1
06 24.06 В 4
{7}
35 км ясно +18.6 +14.8 79 +19 +21 1017.7 954.2 +17.8
07 24.06 ЮВ 5
{8}
35 км ясно +20.2 +15.3 73 +23 +26 комфорт 1018.0 954.8
08 24.06 ЮВ 4
{8}
30 км ясно +22.0 +16.4 71 +26 +32 душно 1017.5 954.7
09 24.06 ЮВ 4
{8}
30 км ясно +22.8 +15.3 63 +27 +35 душно 1017.2 954.6
10 24.06 ЮВ 4
{8}
35 км ясно +23.6 +16.1 63 +27 +38 жарко 1017.2 954.8
11 24.06 Ю 4
{7}
29 км ясно +25.1 +17.1 61 +29 +41 душно 1016.9 954.9
12 24.06 ЮВ 3
{8}
30 км ясно +25.2 +15.9 56 +28 +43 жарко 1016.7 954.6
13 24.06 ЮВ 2
{6}
35 км ясно +26.3 +15.5 51 +29 +46 жарко 1016.9 955.0
14 24.06 нст 2
{6}
30 км ясно +26.8 +16.6 54 +30 +44 душно 1016.5 954.8
15 24.06 штиль 0
{6}
29 км 1/1 1500 м
[]
+27.5 +16.4 51 +31 +44 душно 1016.3 954.7
16 24.06 Ю 2
{6}
35 км 1/1 1500 м
[]
+27.0 +15.7 50 +30 +36 душно 1016.4 954.7
17 24.06 В 3
{5}
40 км ясно +26.4 +14.1 47 +29 +32 жарко 1016.3 954.5
18 24.06 В 3
{6}
35 км ясно +26.0 +15.3 52 +29 +30 душно 1016.2 954.3 +27.8
19 24.06 В 2
{5}
45 км ясно +23.3 +16.0 64 +28 +28 душно 1016.8 954.3
20 24.06 В 3
{4}
45 км ясно +21.2 +15.0 68 +24 +24 комфорт 1017.4 954.4
21 24.06 В 3
{5}
45 км ясно +20.1 +15.3 74 +23 +23 комфорт 1017.8 954.6
22 24.06 В 3
{5}
45 км ясно +20.8 +15.6 72 +24 +24 комфорт 1017.4 954.4
23 24.06 В 4
{6}
45 км ясно +21.2 +15.4 69 +24 +24 комфорт 1017.1 954.2
00 25.06 В 5
{7}
45 км ясно +20.8 +15.4 71 +24 +24 комфорт 1016.7 953.8
01 25.06 В 4
{7}
45 км ясно +20.3 +15.7 75 +23 +23 комфорт 1016.8 953.7
02 25.06 В 4
{7}
45 км ясно +20.5 +15.7 74 +24 +24 комфорт 1016.4 953.4
03 25.06 ЮВ 4
{8}
45 км ясно +20.5 +15.4 73 +23 +23 комфорт 1016.2 953.2
04 25.06 ЮВ 5
{7}
45 км ясно +20.4 +15.7 74 +23 +23 комфорт 1016.1 953.1
05 25.06 ЮВ 4
{7}
35 км ясно +20.9 +16.2 74 +24 +25 комфорт 1016.3 953.4
06 25.06 ЮВ 5
{8}
35 км ясно +20.9 +16.0 74 +24 +26 комфорт 1016.5 953.6 +19.8
07 25.06 ЮВ 4
{8}
35 км ясно +22.3 +16.5 70 +27 +31 душно 1016.5 953.9
08 25.06 ЮВ 4
{8}
30 км ясно +23.8 +17.4 67 +28 +34 душно 1016.4 954.1
09 25.06 ЮВ 3
{8}
10 км ясно +25.4 +18.2 64 +30 +41 душно 1016.2 954.3
10 25.06 Ю 4
{8}
30 км ясно +26.9 +18.3 59 +32 +42 очень
душно
1016.0 954.4
11 25.06 Ю 4
{9}
28 км ясно +27.1 +18.2 58 +32 +44 очень
душно
1016.3 954.7
12 25.06 Ю 4
{9}
35 км ясно +26.8 +17.4 56 +31 +43 душно 1016.8 955.1
13 25.06 Ю 3
{7}
30 км 8/0 2000 м
[]
+28.1 +18.8 57 +33 +41 очень
душно
1016.7 955.3
14 25.06 Ю 3
{7}
29 км ясно +28.9 +18.5 53 +34 +45 очень
душно
1016.6 955.4
15 25.06 ЮЗ 3
{7}
35 км ясно +28.0 +17.5 53 +32 +41 душно 1017.1 955.6
16 25.06 Ю 3
{7}
30 км ясно +28.8 +16.5 47 +32 +38 душно 1017.0 955.6
17 25.06 ЮЗ 3
{6}
30 км ясно +28.3 +16.8 50 +32 +35 душно 1017.5 956.0
18 25.06 ЮЗ 3
{7}
29 км ясно +27.4 +17.3 54 +31 +33 душно 1018.1 956.5 +29.3
19 25.06 З 2
{5}
40 км ясно +25.3 +16.6 59 +29 +29 душно 1018.9 956.8
20 25.06 З 2
{3}
35 км ясно +22.2 +15.1 64 +26 +26 душно 1020.1 957.2
21 25.06 З 1
{5}
40 км ясно +21.9 +14.5 63 +25 +25 комфорт 1020.7 957.7
22 25.06 СЗ 2
{3}
45 км ясно +22.6 +14.4 60 +26 +26 жарко 1021.0 958.1
23 25.06 С 2
{3}
40 км ясно +24.0 +15.5 59 +27 +27 жарко 1020.9 958.3
00 26.06 С 3
{5}
30 км ясно +22.2 +17.5 75 +27 +27 душно 1021.3 958.4
01 26.06 СВ 4
{5}
12 км ясно +20.6 +18.4 87 +25 +25 комфорт 1021.6 958.4
02 26.06 СВ 4
{6}
н/о ясно +20.1 +18.4 90 +23 +23 комфорт 1021.8 958.5
03 26.06 СВ 4
{6}
н/о ясно +19.7 +18.1 90 +22 +22 комфорт 1022.3 958.8
04 26.06 СВ 4
{5}
н/о ясно +19.7 +18.3 92 +22 +23 комфорт 1022.6 959.1
05 26.06 СВ 3
{5}
20 км ясно +20.8 +17.7 82 +25 +26 комфорт 1022.7 959.4
06 26.06 СВ 4
{6}
20 км ясно +22.1 +17.9 77 +27 +29 душно 1022.7 959.7 +19.6
07 26.06 СВ 4
{6}
22 км ясно +23.1 +18.3 74 +29 +33 очень
душно
1022.6 959.8
08 26.06 СВ 4
{6}
8000 м ясно +25.3 +19.7 71 +31 +37 очень
душно
1022.8 960.5
09 26.06 В 3
{6}
11 км ясно +26.3 +19.3 65 +32 +42 очень
душно
1022.9 960.8
10 26.06 С 3
{6}
25 км ясно +26.9 +17.7 57 +31 +44 душно 1023.0 960.9
11 26.06 СВ 2
{5}
28 км ясно +28.3 +17.0 50 +32 +49 душно 1022.7 960.9
12 26.06 СВ 2
{6}
24 км ясно +28.6 +18.7 55 +34 +51 опасность
солнечного
удара
1022.3 960.6
13 26.06 СВ 2
{8}
27 км ясно +29.1 +19.1 55 +35 +51 опасность
солнечного
удара
1022.0 960.5
14 26.06 С 4
{8}
24 км ясно +28.4 +18.7 56 +34 +43 очень
душно
1022.0 960.3
15 26.06 С 5
{8}
17 км ясно +27.3 +17.9 56 +32 +37 очень
душно
1022.0 960.1
16 26.06 С 5
{9}
16 км ясно +26.8 +17.3 56 +31 +34 душно 1021.7 959.7
17 26.06 С 4
{8}
14 км ясно +26.2 +18.1 61 +31 +33 очень
душно
1022.0 959.9
18 26.06 СВ 6
{10}
14 км ясно +24.9 +17.6 64 +29 +30 душно 1022.2 959.8 +29.6
19 26.06 СВ 6
{9}
13 км ясно +23.6 +17.4 68 +27 +28 жарко 1022.8 960.1
20 26.06 С 5
{8}
11 км ясно +22.1 +17.9 77 +27 +27 душно 1023.5 960.4
21 26.06 СВ 6
{9}
10 км ясно +20.9 +17.9 83 +25 +25 комфорт 1024.0 960.7
22 26.06 СВ 6
{9}
н/о ясно +19.9 +17.7 87 +22 +22 комфорт 1024.4 960.9
23 26.06 СВ 5
{7}
н/о ясно +19.0 +17.2 89 +20 +20 1024.9 961.1

 

Местоположение метеостанции Сент-Губерт (Бельгия): широта 50.03 долгота 5.40 высота над уровнем моря 557 м.

В архиве по умолчанию представлена погода в Сент-Губерте за последнюю неделю. Архивные данные за месяц целиком и за предыдущие месяцы, начиная с января 2011 года, Вы можете получить, выбрав интересующий диапазон дат из раскрывающегося списка и нажав кнопку "Ввод!".


*Определитесь, кто Вы:
робот инопланетянин человек

Внимание! Время в таблицах - всемирное. Для получения местного времени необходимо прибавить поправку, которая равна 1 ч.

Смотрите также архив погоды в соседних городах и на ближайших метеорологических станциях:

Погода в Гумане (Бельгия) (22 км)
Погода в Бюзеноле (Бельгия) (47 км)
Погода в Дурбе (Бельгия) (58 км)
Погода во Флорене (Бельгия) (58 км)
Погода в Чарвилле (Франция) (62 км)
Погода в Спа (Бельгия) (62 км)
Погода в Бьерсете (Бельгия) (69 км)
Погода на Монт-Риги (Бельгия) (72 км)
Погода в Люксембурге (Люксембург) (73 км)
Погода в Элзенборне (Бельгия) (74 км)

Пояснения к столбцам:

Ветер - указаны скорость ветра в м/с - средняя за 10 мин, порывы в срок и между сроками (в фигурных скобках) и направление, откуда дует ветер: С - северный, СВ - северо-восточный, В - восточный, ЮВ - юго-восточный, Ю - южный, ЮЗ - юго-западный, З - западный, СЗ - северо-западный.
Видимость - горизонтальная дальность видимости в метрах или километрах. При видимости от 1 до 10 км при отсутствии осадков обычно наблюдается дымка, при ухудшении видимости до 1 км и менее - туман. В сухую погоду видимость может ухудшаться дымом, пылью или мглою.
Явления - указаны атмосферные явления, наблюдавшиеся в срок или в последний час перед сроком; фигурными скобками обозначены явления, наблюдавшиеся между сроками (за 1-3 часа до срока); квадратными скобками обозначены град или гололедные отложения с указанием их диаметра в мм.
Облачность - указаны через наклонную черту общая и нижняя облачность в баллах и высота нижней границы облаков в метрах; квадратными скобками обозначены формы облаков: Ci - перистые, Cs - перисто-слоистые, Cc - перисто-кучевые, Ac - высококучевые, As - высокослоистые, Sc - слоисто-кучевые, Ns - слоисто-дождевые, Cu - кучевые, Cb - кучево-дождевые. Подробнее классификацию облаков см. в Атласе облаков (PDF).
T - Температура воздуха - температура, измеренная на высоте 2 м над землей.
Td - Температура точки росы - температура, при понижении до которой содержащийся в воздухе водяной пар достигнет насыщения.
f - Относительная влажность воздуха - влажноcть воздуха, измеренная на высоте 2 м над землей.
Te - Эффективная температура - температура, которую ощущает одетый по сезону человек в тени. Характеристика душности погоды. При расчете учитывается влияние влажности воздуха и скорости ветра на теплоощущения человека.
Tes - Эффективная температура на солнце - температура, которую ощущает человек, с поправкой на солнечный нагрев. Характеристика знойности погоды. Зависит от высоты солнца над горизонтом, облачности и скорости ветра. Ночью, в пасмурную погоду, а также при ветре 12 м/с и более поправка равна нулю.
P - Атмосферное давление - приведенное к уровню моря атмосферное давление.
Po - Атмосферное давление - измеренное на уровне метеостанции атмосферное давление.
Tmin - Минимальная температура - минимум температуры воздуха на высоте 2 м над землей.
Tmax - Максимальная температура - максимум температуры воздуха на высоте 2 м над землей.
R - Количество осадков - Количество выпавших осадков за период времени, мм. При наведении курсора мыши на число - период времени, за который выпало указанное количество осадков.
R24 - Количество осадков - Количество выпавших осадков за 24 часа, мм.
S - Снежный покров - Высота снежного покрова, см. При наведении курсора мыши на число - состояние снежного покрова и степень покрытия местности в баллах.